sat.trackr.live / text

‹ back to catalog

STARLINK-34447

NORAD 64710 · 2025-142Q

PAYLOAD ACTIVE UNKNOWN

§ Identity

Operator
Country
US
Launch date
2025-06-28
Launch site
AFWTR
Launch vehicle
Mass (kg)
RCS (m²)

Purposes: comms

External: N2YO · Heavens-Above · Gunter

§ Orbital elements

Epoch: 2026-09-20T05:16:55.324992Z

Period
94.14 min
Inclination
70.0010°
Eccentricity
0.0002474
Mean motion
15.29614774 rev/d
Perigee alt
475.3 km
Apogee alt
478.7 km
Semi-major
6,855.1 km
B*
6.4706e-4
RAAN
181.7842°
Arg perigee
261.6732°
Mean anomaly
98.4163°
Rev number
6,884

§ Raw data

STARLINK-344471 64710U 25142Q   26263.22008478  .00018538  00000+0  64706-3 0  99922 64710  70.0010 181.7842 0002474 261.6732  98.4163 15.29614774 68846

JSON: /api/v1/satellites/64710 · /tle

For live sub-satellite position, see the globe view (requires WebGL).

§ Visibility from observer

Set your observer location to see the next 7 days of passes ≥ 10°. The values pass through the URL so the page stays shareable.

No JS? Fill the form by hand. The geolocation button needs JavaScript.